Wind_Speed
8 9 10 11 11 12 12 14 15 15 16 18 19 20 20 20 20 22 23 23 25 26 26 26 25 23 24 24 22 21 21 21 19 21 25 26 27 26 25 24 23 21
8 8 8 8 8 8 9 11 13 15 17 18 19 19 20 21 21 23 24 24 25 26 24 24 24 24 24 23 21 20 19 20 19 20 23 25 26 26 25 24 23 22
5 6 5 5 5 6 8 10 12 15 18 18 17 18 19 21 22 24 24 23 23 23 22 22 23 23 23 21 19 18 18 18 19 19 21 24 25 25 24 24 24 23
4 5 6 6 7 9 10 12 14 16 17 16 16 18 20 21 23 24 24 22 21 19 19 20 22 21 19 17 18 18 17 18 19 19 21 24 25 25 25 24 24 23
5 6 8 9 10 12 13 15 16 16 17 17 16 18 20 21 23 24 22 21 19 17 16 16 18 18 16 15 16 17 17 18 20 20 21 24 25 25 25 24 25 24
6 7 9 10 10 11 13 14 15 16 17 17 17 18 19 20 21 21 19 17 15 14 13 12 13 15 15 14 14 15 16 18 19 19 20 22 24 25 25 24 24 24
7 8 9 10 11 10 11 12 13 14 15 15 16 17 18 18 18 17 14 13 11 10 10 10 11 13 14 14 14 14 14 15 16 18 19 19 20 22 23 23 23 23
7 9 10 10 11 11 11 11 12 12 13 15 15 15 16 16 15 13 11 11 9 8 9 10 11 11 13 14 14 14 14 14 15 17 18 19 19 19 21 22 22 23
13 13 13 13 14 14 13 13 13 13 13 14 14 14 14 14 13 13 11 11 10 9 10 10 9 9 10 12 12 13 15 16 15 15 17 19 19 19 20 21 21 22
15 14 14 14 14 14 13 13 13 13 13 14 14 13 13 13 12 12 12 12 11 10 10 9 8 8 9 10 11 11 12 13 13 14 17 19 19 19 20 20 20 21
15 14 13 13 13 13 13 12 12 12 13 14 13 13 13 12 12 12 12 11 10 8 8 8 7 6 7 8 10 10 10 11 11 12 16 18 19 19 19 19 19 19
15 14 12 12 12 11 11 12 12 12 12 12 12 13 12 12 12 12 11 11 9 6 6 7 5 4 4 6 9 10 10 10 10 11 13 16 18 18 17 17 17 16
14 13 11 9 9 10 11 12 13 12 11 11 11 11 11 11 12 11 10 10 9 6 5 6 4 3 4 6 8 10 11 11 11 11 12 13 15 15 15 15 15 15
13 13 12 9 9 10 10 12 13 13 13 11 11 11 11 12 12 10 9 9 8 6 5 4 4 3 4 6 7 8 10 11 11 11 12 12 13 14 14 14 14 15
11 13 15 14 12 12 13 14 15 15 15 13 12 11 10 12 13 11 9 8 8 7 5 4 4 3 4 5 5 6 7 8 9 10 10 11 11 12 14 14 15 14
12 13 14 14 14 14 15 15 15 15 15 14 13 10 9 10 12 12 11 10 8 8 6 4 2 2 4 4 5 5 5 5 6 7 8 8 8 10 12 12 13 13
14 14 13 12 13 14 15 16 16 15 15 14 13 11 10 10 11 12 13 12 10 9 8 5 2 2 3 4 5 6 4 3 5 6 7 6 6 8 10 9 9 11
13 13 13 12 13 14 16 17 17 17 17 16 15 15 12 11 11 12 13 12 11 11 8 5 1 2 3 4 5 5 5 4 5 6 6 6 6 6 7 6 7 9
11 12 14 14 13 15 17 19 20 21 21 20 18 16 15 14 13 13 13 12 11 11 10 6 2 3 5 5 5 5 5 5 5 4 3 3 4 4 4 4 6 8
12 12 13 13 14 15 17 20 21 22 21 21 21 20 21 21 20 18 17 16 14 13 12 9 4 6 9 8 7 7 5 5 5 4 3 2 2 3 4 4 5 7
13 13 13 14 15 15 17 20 20 20 20 22 22 23 24 24 24 23 20 18 17 15 13 9 5 9 11 10 10 7 5 4 3 2 2 2 1 3 4 5 7 8
12 13 14 15 15 15 17 18 18 19 19 20 21 23 24 24 25 25 23 21 21 21 18 14 12 17 17 13 11 10 9 10 9 5 3 3 4 4 4 5 7 9
11 12 14 14 14 15 16 16 17 18 18 19 20 22 24 24 25 25 24 24 24 26 27 24 22 24 23 19 17 16 15 16 16 13 10 7 6 6 7 7 7 8
11 12 13 14 14 14 15 15 16 17 17 18 19 21 23 24 24 24 24 25 25 26 28 28 27 26 26 25 24 20 18 18 19 18 17 14 12 9 8 10 11 10
13 13 13 13 13 14 15 15 16 16 16 17 17 19 22 22 22 22 23 25 26 26 25 26 27 27 25 24 23 20 20 22 22 22 21 18 16 13 11 13 14 12
14 14 15 14 13 13 15 16 15 15 15 15 16 17 19 20 21 21 23 24 25 26 25 25 26 26 24 22 20 19 17 17 18 22 23 20 18 15 14 15 14 14
Wind_Direction
277 283 289 293 297 300 303 302 299 298 298 301 305 308 310 312 311 305 300 296 289 283 277 269 262 261 259 254 249 247 246 247 246 244 241 238 235 230 224 221 218 214
277 287 294 300 304 305 305 304 300 299 299 301 304 308 312 314 312 308 303 296 288 284 280 270 262 260 260 254 247 243 243 244 242 242 240 236 235 234 227 220 216 211
282 289 289 291 295 296 296 294 293 295 297 301 308 313 315 315 313 310 306 299 291 286 282 271 261 261 267 262 252 247 247 247 244 240 238 237 235 233 227 222 218 212
286 285 283 284 285 284 285 287 290 294 297 303 312 315 315 315 315 313 309 306 300 290 283 275 263 260 270 268 255 250 251 249 245 239 237 237 234 230 226 222 219 214
297 294 289 284 280 278 280 286 292 295 298 305 314 317 318 319 319 319 318 316 310 296 284 276 265 259 264 262 252 251 251 247 244 238 234 233 231 229 226 220 216 215
301 303 301 299 298 295 293 296 299 300 301 309 318 321 321 322 324 329 331 324 314 300 286 276 268 264 261 255 249 249 248 248 249 242 234 231 230 228 224 216 214 214
308 318 324 326 331 331 323 318 316 313 312 318 325 327 326 327 330 336 337 328 317 304 292 281 273 266 258 252 250 247 240 239 243 238 232 232 229 227 223 217 213 213
353 3 5 4 9 11 360 348 341 333 328 328 330 333 332 332 332 331 328 326 323 316 307 296 284 269 254 248 247 243 236 231 230 228 228 229 227 224 223 222 218 217
32 33 31 28 29 26 16 8 358 347 341 338 337 337 333 332 333 331 324 319 316 320 321 313 297 277 252 240 237 235 233 229 228 228 227 225 224 221 222 224 224 223
41 38 37 32 29 24 14 7 1 353 349 346 344 340 334 331 333 334 332 323 316 320 325 321 307 284 253 236 232 225 220 222 226 226 222 221 223 220 221 225 225 225
39 38 40 30 24 22 9 358 356 355 351 350 352 350 342 337 335 334 335 330 323 324 327 327 316 289 259 239 231 218 210 215 219 216 213 216 220 220 222 227 230 226
36 36 34 23 17 14 359 346 346 346 343 347 355 356 349 342 339 337 333 327 322 325 336 333 312 278 258 231 221 217 213 213 214 212 213 215 217 219 220 227 232 226
34 27 19 13 2 350 341 343 347 346 341 339 342 349 352 350 347 343 338 335 329 330 343 334 304 265 242 222 215 213 210 210 215 220 222 221 218 218 219 221 224 220
32 19 15 15 359 348 355 3 6 2 354 343 333 339 356 2 357 350 343 342 340 343 347 324 301 270 228 220 223 220 213 214 217 218 224 227 220 219 219 216 217 218
34 25 27 26 14 16 25 22 16 9 1 355 344 343 2 12 5 357 352 345 337 335 324 297 293 271 222 205 208 219 222 224 223 224 231 229 219 222 221 210 209 216
41 36 35 29 19 24 29 23 16 10 3 0 357 355 8 15 7 2 2 359 347 335 320 307 304 233 218 203 198 207 212 217 222 228 234 225 212 222 224 203 196 207
48 40 35 31 25 26 27 22 15 12 8 8 12 18 20 14 4 0 2 3 359 349 333 321 342 154 198 212 212 212 209 210 215 213 218 221 210 218 227 213 199 209
53 43 37 35 33 32 31 28 24 24 27 29 31 32 27 16 6 1 359 358 356 355 349 329 323 112 156 187 196 205 214 222 225 212 208 223 227 219 226 232 225 219
53 51 48 42 42 43 41 40 41 42 43 45 45 44 41 35 30 22 14 7 1 3 8 360 5 107 134 156 161 175 196 202 209 204 185 215 246 238 230 237 238 224
51 56 56 51 52 53 52 53 55 55 54 54 53 51 50 48 47 44 38 29 22 18 20 18 44 112 132 148 151 157 172 168 168 173 169 196 256 262 241 221 212 214
53 55 58 59 62 63 62 63 64 62 58 55 53 52 52 51 51 51 50 43 37 36 36 36 74 116 126 136 136 133 131 109 94 104 140 160 193 229 227 192 180 193
56 56 60 66 70 71 72 71 67 63 60 57 55 55 54 52 53 56 58 57 55 57 58 64 94 108 109 113 107 90 72 61 54 54 74 110 147 167 179 174 177 186
62 62 67 74 79 78 76 75 71 67 64 61 58 57 56 55 57 61 62 62 62 64 64 69 84 91 89 84 75 66 64 65 61 59 61 70 106 135 151 154 149 150
65 68 74 80 83 81 78 75 73 72 71 68 64 61 62 62 63 64 65 63 63 65 65 68 73 75 73 71 64 59 62 64 61 59 59 58 63 78 105 116 111 112
69 72 78 83 84 82 78 74 72 74 75 73 69 67 67 67 66 67 67 66 66 66 65 66 70 71 71 69 67 66 67 62 56 57 59 56 52 58 79 96 99 102
73 75 75 77 79 81 80 76 73 73 74 72 70 68 68 68 67 68 70 70 68 68 67 67 70 73 72 70 72 75 71 59 51 54 55 54 54 58 70 86 95 100
Height
1523 1523 1523 1523 1523 1523 1522 1521 1520 1519 1518 1517 1516 1515 1514 1513 1512 1511 1510 1509 1507 1506 1506 1507 1506 1506 1506 1506 1506 1506 1508 1510 1510 1511 1512 1513 1513 1513 1513 1515 1516 1517
1521 1521 1521 1521 1521 1520 1520 1519 1518 1517 1516 1515 1514 1513 1511 1510 1509 1507 1506 1505 1503 1501 1502 1502 1502 1502 1503 1503 1503 1504 1505 1507 1507 1509 1510 1511 1512 1513 1513 1514 1515 1516
1520 1519 1519 1519 1518 1518 1517 1516 1515 1514 1514 1513 1512 1511 1509 1507 1505 1503 1502 1500 1498 1498 1498 1498 1499 1500 1501 1502 1502 1502 1503 1505 1505 1506 1508 1509 1511 1512 1512 1514 1515 1516
1518 1518 1517 1517 1516 1515 1514 1514 1513 1512 1511 1511 1510 1508 1507 1505 1503 1500 1498 1496 1495 1494 1494 1495 1496 1498 1499 1500 1501 1501 1501 1503 1503 1504 1506 1508 1510 1510 1512 1513 1514 1515
1516 1515 1515 1515 1514 1513 1512 1511 1511 1510 1509 1508 1507 1506 1504 1502 1500 1498 1495 1494 1493 1492 1491 1492 1493 1495 1496 1497 1497 1497 1498 1500 1501 1503 1504 1506 1508 1509 1510 1512 1513 1514
1514 1513 1513 1512 1512 1511 1510 1509 1508 1507 1506 1506 1505 1504 1502 1500 1498 1496 1494 1493 1492 1490 1490 1491 1492 1492 1493 1493 1493 1494 1495 1497 1499 1502 1504 1505 1507 1508 1509 1510 1511 1512
1513 1512 1511 1511 1510 1509 1508 1507 1506 1505 1504 1504 1503 1502 1500 1498 1496 1494 1493 1492 1491 1489 1489 1490 1490 1490 1490 1490 1491 1491 1492 1494 1497 1500 1502 1503 1504 1506 1507 1508 1509 1510
1511 1511 1510 1510 1509 1508 1507 1506 1505 1504 1503 1502 1502 1500 1498 1496 1495 1493 1493 1491 1490 1488 1488 1488 1488 1487 1487 1488 1488 1489 1490 1491 1494 1496 1498 1500 1501 1503 1504 1505 1506 1507
1510 1510 1509 1509 1508 1507 1506 1505 1504 1503 1502 1501 1500 1499 1497 1495 1494 1493 1492 1491 1489 1488 1487 1487 1487 1486 1486 1486 1487 1488 1488 1489 1491 1493 1495 1496 1498 1500 1502 1503 1504 1505
1510 1510 1509 1508 1507 1506 1505 1504 1504 1502 1501 1500 1499 1497 1496 1494 1493 1492 1491 1490 1488 1487 1486 1486 1485 1485 1485 1485 1486 1487 1488 1488 1489 1491 1493 1494 1496 1498 1500 1502 1503 1504
1510 1509 1508 1507 1506 1506 1505 1504 1503 1502 1500 1499 1498 1496 1495 1493 1492 1491 1490 1489 1488 1487 1486 1485 1485 1484 1485 1485 1486 1486 1487 1488 1489 1490 1491 1493 1494 1496 1499 1501 1503 1504
1509 1509 1508 1507 1506 1505 1505 1504 1502 1501 1500 1498 1497 1496 1494 1492 1491 1491 1490 1489 1488 1486 1486 1485 1484 1484 1485 1485 1485 1486 1486 1488 1489 1490 1491 1492 1494 1496 1498 1501 1503 1504
1509 1508 1507 1507 1506 1505 1504 1503 1502 1500 1499 1497 1496 1495 1494 1492 1491 1490 1489 1488 1488 1486 1485 1485 1484 1484 1485 1485 1485 1486 1486 1487 1488 1490 1491 1492 1494 1496 1497 1500 1502 1502
1509 1508 1507 1506 1506 1505 1504 1502 1501 1500 1498 1497 1496 1494 1493 1492 1491 1490 1489 1488 1487 1486 1485 1485 1484 1484 1485 1485 1485 1486 1486 1487 1488 1489 1490 1492 1494 1495 1497 1499 1500 1500
1509 1508 1507 1506 1505 1504 1503 1502 1501 1499 1498 1496 1495 1494 1493 1492 1491 1489 1488 1487 1487 1486 1485 1485 1485 1484 1484 1485 1485 1486 1486 1487 1487 1488 1489 1491 1493 1494 1495 1497 1498 1498
1509 1508 1507 1507 1505 1504 1503 1502 1501 1499 1498 1496 1495 1494 1493 1492 1490 1489 1488 1487 1487 1486 1486 1485 1485 1485 1485 1485 1486 1486 1487 1487 1488 1488 1489 1491 1493 1493 1493 1495 1497 1498
1509 1508 1507 1507 1505 1504 1503 1502 1501 1499 1497 1496 1495 1494 1493 1492 1490 1490 1489 1488 1487 1486 1486 1485 1486 1486 1486 1486 1486 1487 1487 1488 1488 1489 1489 1491 1493 1492 1492 1493 1495 1496
1509 1508 1507 1507 1506 1505 1504 1503 1501 1499 1498 1497 1495 1495 1494 1492 1491 1490 1489 1488 1487 1487 1487 1486 1486 1486 1486 1486 1486 1487 1488 1488 1488 1489 1490 1491 1491 1492 1492 1493 1494 1495
1509 1508 1508 1507 1506 1505 1505 1504 1502 1500 1499 1498 1497 1496 1495 1493 1492 1490 1489 1488 1487 1487 1487 1487 1487 1487 1487 1487 1487 1488 1488 1488 1488 1489 1490 1490 1491 1491 1492 1493 1494 1495
1509 1509 1508 1507 1507 1506 1506 1504 1503 1502 1501 1500 1498 1497 1495 1494 1492 1491 1490 1489 1488 1488 1488 1488 1488 1488 1488 1488 1488 1489 1489 1489 1489 1490 1490 1490 1491 1491 1492 1493 1493 1495
1510 1509 1508 1508 1507 1507 1507 1506 1505 1504 1503 1502 1500 1499 1497 1496 1495 1494 1493 1492 1490 1490 1490 1489 1488 1488 1489 1490 1490 1490 1490 1491 1491 1491 1491 1491 1491 1491 1492 1492 1493 1494
1510 1509 1509 1509 1508 1508 1508 1507 1506 1505 1505 1504 1503 1501 1500 1498 1497 1496 1496 1495 1494 1492 1491 1491 1490 1489 1489 1490 1491 1492 1493 1492 1492 1491 1491 1491 1492 1492 1492 1493 1493 1494
1511 1510 1510 1510 1510 1509 1509 1508 1507 1507 1507 1506 1505 1504 1502 1501 1500 1499 1499 1498 1497 1495 1494 1494 1494 1492 1490 1492 1493 1494 1495 1494 1494 1493 1493 1493 1493 1493 1493 1493 1493 1494
1511 1511 1511 1511 1511 1510 1510 1509 1509 1508 1508 1508 1507 1506 1504 1504 1503 1502 1502 1501 1499 1498 1498 1498 1498 1496 1495 1495 1496 1497 1497 1497 1496 1495 1495 1495 1495 1495 1495 1495 1495 1496
1512 1512 1512 1512 1512 1512 1511 1511 1511 1510 1510 1510 1509 1508 1507 1506 1506 1505 1504 1503 1502 1501 1501 1501 1500 1500 1500 1499 1498 1500 1500 1500 1500 1499 1498 1499 1499 1498 1498 1498 1498 1498
1513 1513 1513 1513 1513 1513 1513 1513 1513 1513 1512 1512 1511 1510 1509 1509 1508 1507 1506 1505 1505 1504 1503 1503 1503 1503 1503 1502 1502 1502 1503 1503 1502 1502 1502 1503 1503 1502 1502 1502 1502 1502